Location: Proctor
(47.8934°N, 114.3048°W)
Time: 22:07:48
(UTC+00:00)

AO-92 - Pass Details

Date: 06 July 2022
Orbit: 469 x 481 km, 97.4° (Epoch: 13 August)

Event Time Altitude Azimuth Distance (km) Brightness Sun altitude
Exits shadow 04:56:15 14° 127° (SE) 1,412 ? -10.2°
Maximum altitude 04:58:46 31° 69° (ENE) 863 ? -10.5°
Drops below altitude 10° 05:01:59 10° 6° (N) 1,673 ? -10.8°
Sets 05:04:12 0° 356° (N) 2,561 ? -11.0°
